Time,TemperatureF,DewpointF,PressureIn,WindDirection,WindDirectionDegrees,WindSpeedMPH,WindSpeedGustMPH,Humidity,HourlyPrecipIn,Conditions,Clouds,dailyrainin,SoftwareType,DateUTC
2013-02-26 00:00:00,29.9,20.2,30.19,ENE,68,0.0,0.7,67,0.00,,,0.00,WUHU216HW,2013-02-26 05:00:00,
2013-02-26 00:05:00,29.9,20.5,30.20,ESE,113,0.4,0.4,68,0.00,,,0.00,WUHU216HW,2013-02-26 05:05:00,
2013-02-26 00:10:00,29.9,20.2,30.19,NNE,23,0.0,0.4,67,0.00,,,0.00,WUHU216HW,2013-02-26 05:10:00,
2013-02-26 00:15:00,29.9,20.2,30.19,East,90,0.0,0.2,67,0.00,,,0.00,WUHU216HW,2013-02-26 05:15:00,
2013-02-26 00:20:00,29.9,20.2,30.19,East,90,0.0,0.4,67,0.00,,,0.00,WUHU216HW,2013-02-26 05:20:00,
2013-02-26 00:25:00,29.7,20.4,30.18,ESE,113,0.4,0.4,68,0.00,,,0.00,WUHU216HW,2013-02-26 05:25:00,
2013-02-26 00:30:00,29.5,20.3,30.18,NE,45,0.7,0.7,68,0.00,,,0.00,WUHU216HW,2013-02-26 05:30:00,
2013-02-26 00:35:00,29.5,20.3,30.17,NE,45,0.2,0.7,68,0.00,,,0.00,WUHU216HW,2013-02-26 05:35:00,
2013-02-26 00:40:00,29.3,20.1,30.18,ENE,68,0.4,0.7,68,0.00,,,0.00,WUHU216HW,2013-02-26 05:40:00,
2013-02-26 00:45:00,29.5,20.3,30.17,ENE,68,1.1,1.1,68,0.00,,,0.00,WUHU216HW,2013-02-26 05:45:00,
2013-02-26 00:50:00,29.3,20.4,30.18,ENE,68,0.4,1.8,69,0.00,,,0.00,WUHU216HW,2013-02-26 05:50:00,
2013-02-26 00:55:00,29.3,20.4,30.18,ENE,68,0.4,1.8,69,0.00,,,0.00,WUHU216HW,2013-02-26 05:55:00,
2013-02-26 01:00:00,29.3,20.4,30.18,NE,45,0.4,1.3,69,0.00,,,0.00,WUHU216HW,2013-02-26 06:00:00,
2013-02-26 01:05:00,29.2,20.3,30.17,East,90,0.4,3.4,69,0.00,,,0.00,WUHU216HW,2013-02-26 06:05:00,
2013-02-26 01:10:00,29.2,20.3,30.17,ENE,68,0.4,3.4,69,0.00,,,0.00,WUHU216HW,2013-02-26 06:10:00,
2013-02-26 01:15:00,29.2,20.3,30.17,NE,45,0.4,1.8,69,0.00,,,0.00,WUHU216HW,2013-02-26 06:15:00,
2013-02-26 01:20:00,29.2,20.3,30.17,NE,45,1.1,1.8,69,0.00,,,0.00,WUHU216HW,2013-02-26 06:20:00,
2013-02-26 01:25:00,29.3,20.4,30.17,NE,45,0.9,2.0,69,0.00,,,0.00,WUHU216HW,2013-02-26 06:25:00,
2013-02-26 01:30:00,29.3,20.4,30.17,NE,45,0.4,2.0,69,0.00,,,0.00,WUHU216HW,2013-02-26 06:30:00,
2013-02-26 01:35:00,29.3,20.4,30.17,NE,45,0.7,1.3,69,0.00,,,0.00,WUHU216HW,2013-02-26 06:35:00,
2013-02-26 01:40:00,29.3,20.4,30.17,NE,45,0.4,1.6,69,0.00,,,0.00,WUHU216HW,2013-02-26 06:40:00,
2013-02-26 01:45:00,29.3,20.4,30.17,ENE,68,1.1,3.6,69,0.00,,,0.00,WUHU216HW,2013-02-26 06:45:00,
2013-02-26 01:50:00,29.2,20.6,30.17,NNE,23,2.0,3.6,70,0.00,,,0.00,WUHU216HW,2013-02-26 06:50:00,
2013-02-26 01:55:00,29.2,20.3,30.16,NE,45,0.4,2.0,69,0.00,,,0.00,WUHU216HW,2013-02-26 06:55:00,
2013-02-26 02:00:00,29.3,20.4,30.17,NE,45,1.1,2.5,69,0.00,,,0.00,WUHU216HW,2013-02-26 07:00:00,
2013-02-26 02:05:00,29.2,20.6,30.17,NE,45,0.9,2.5,70,0.00,,,0.00,WUHU216HW,2013-02-26 07:05:00,
2013-02-26 02:10:00,29.2,20.6,30.17,NE,45,0.4,2.5,70,0.00,,,0.00,WUHU216HW,2013-02-26 07:10:00,
2013-02-26 02:15:00,29.2,20.6,30.17,ENE,68,0.7,1.8,70,0.00,,,0.00,WUHU216HW,2013-02-26 07:15:00,
2013-02-26 02:20:00,29.2,20.6,30.17,ENE,68,0.4,2.7,70,0.00,,,0.00,WUHU216HW,2013-02-26 07:20:00,
2013-02-26 02:25:00,29.2,20.6,30.17,NNE,23,0.2,2.7,70,0.00,,,0.00,WUHU216HW,2013-02-26 07:25:00,
2013-02-26 02:30:00,29.2,20.6,30.17,NE,45,0.4,1.8,70,0.00,,,0.00,WUHU216HW,2013-02-26 07:30:00,
2013-02-26 02:35:00,29.2,20.6,30.17,NE,45,0.9,2.0,70,0.00,,,0.00,WUHU216HW,2013-02-26 07:35:00,
2013-02-26 02:40:00,29.0,20.4,30.17,NNE,23,1.6,2.0,70,0.00,,,0.00,WUHU216HW,2013-02-26 07:40:00,
2013-02-26 02:45:00,29.0,20.4,30.17,ENE,68,1.6,2.5,70,0.00,,,0.00,WUHU216HW,2013-02-26 07:45:00,
2013-02-26 02:50:00,29.0,20.4,30.16,NE,45,2.2,2.5,70,0.00,,,0.00,WUHU216HW,2013-02-26 07:50:00,
2013-02-26 02:55:00,29.0,20.4,30.15,NE,45,1.8,2.5,70,0.00,,,0.00,WUHU216HW,2013-02-26 07:55:00,
2013-02-26 03:00:00,29.0,20.4,30.15,ENE,68,1.3,2.2,70,0.00,,,0.00,WUHU216HW,2013-02-26 08:00:00,
2013-02-26 03:05:00,28.8,20.4,30.15,NE,45,1.3,2.0,70,0.00,,,0.00,WUHU216HW,2013-02-26 08:05:00,
2013-02-26 03:10:00,28.8,20.4,30.15,NNW,338,1.8,3.4,70,0.00,,,0.00,WUHU216HW,2013-02-26 08:10:00,
2013-02-26 03:15:00,29.0,20.4,30.14,NE,45,1.1,3.4,70,0.00,,,0.00,WUHU216HW,2013-02-26 08:15:00,
2013-02-26 03:20:00,29.0,20.4,30.14,ENE,68,1.8,2.0,70,0.00,,,0.00,WUHU216HW,2013-02-26 08:20:00,
2013-02-26 03:25:00,29.0,20.4,30.14,ENE,68,5.4,5.4,70,0.00,,,0.00,WUHU216HW,2013-02-26 08:25:00,
2013-02-26 03:30:00,28.8,20.4,30.14,NE,45,2.5,5.4,70,0.00,,,0.00,WUHU216HW,2013-02-26 08:30:00,
2013-02-26 03:35:00,29.0,20.4,30.14,ENE,68,2.0,2.9,70,0.00,,,0.00,WUHU216HW,2013-02-26 08:35:00,
2013-02-26 03:40:00,29.0,20.4,30.14,ENE,68,0.9,2.9,70,0.00,,,0.00,WUHU216HW,2013-02-26 08:40:00,
2013-02-26 03:45:00,29.0,20.4,30.14,NE,45,0.9,2.5,70,0.00,,,0.00,WUHU216HW,2013-02-26 08:45:00,
2013-02-26 03:50:00,29.0,20.4,30.14,NE,45,3.1,3.1,70,0.00,,,0.00,WUHU216HW,2013-02-26 08:50:00,
2013-02-26 03:55:00,28.8,20.4,30.13,ENE,68,2.2,3.1,70,0.00,,,0.00,WUHU216HW,2013-02-26 08:55:00,
2013-02-26 04:00:00,28.8,20.4,30.13,ENE,68,1.8,2.5,70,0.00,,,0.00,WUHU216HW,2013-02-26 09:00:00,
2013-02-26 04:05:00,28.6,20.2,30.12,ENE,68,1.6,2.5,70,0.00,,,0.00,WUHU216HW,2013-02-26 09:05:00,
2013-02-26 04:10:00,28.6,20.4,30.12,East,90,2.0,3.4,71,0.00,,,0.00,WUHU216HW,2013-02-26 09:10:00,
2013-02-26 04:15:00,28.6,20.4,30.12,NE,45,1.8,4.0,71,0.00,,,0.00,WUHU216HW,2013-02-26 09:15:00,
2013-02-26 04:20:00,28.6,20.4,30.11,ENE,68,1.6,4.0,71,0.00,,,0.00,WUHU216HW,2013-02-26 09:20:00,
2013-02-26 04:25:00,28.6,20.4,30.11,NE,45,2.2,4.7,71,0.00,,,0.00,WUHU216HW,2013-02-26 09:25:00,
2013-02-26 04:30:00,28.4,20.3,30.10,ENE,68,2.0,5.6,71,0.00,,,0.00,WUHU216HW,2013-02-26 09:30:00,
2013-02-26 04:35:00,28.4,20.3,30.11,SE,135,1.6,5.6,71,0.00,,,0.00,WUHU216HW,2013-02-26 09:35:00,
2013-02-26 04:40:00,28.4,20.3,30.11,ENE,68,6.5,6.5,71,0.00,,,0.00,WUHU216HW,2013-02-26 09:40:00,
2013-02-26 04:45:00,28.4,20.3,30.11,NE,45,2.5,6.5,71,0.00,,,0.00,WUHU216HW,2013-02-26 09:45:00,
2013-02-26 04:50:00,28.4,20.3,30.11,NE,45,1.1,2.9,71,0.00,,,0.00,WUHU216HW,2013-02-26 09:50:00,
2013-02-26 04:55:00,28.4,20.6,30.11,NE,45,2.5,3.4,72,0.00,,,0.00,WUHU216HW,2013-02-26 09:55:00,
2013-02-26 05:00:00,28.4,20.6,30.10,NE,45,2.9,3.4,72,0.00,,,0.00,WUHU216HW,2013-02-26 10:00:00,
2013-02-26 05:05:00,28.4,20.6,30.10,ENE,68,2.5,5.8,72,0.00,,,0.00,WUHU216HW,2013-02-26 10:05:00,
2013-02-26 05:10:00,28.4,20.6,30.09,ENE,68,2.9,5.8,72,0.00,,,0.00,WUHU216HW,2013-02-26 10:10:00,
2013-02-26 05:15:00,28.4,20.6,30.08,North,0,1.3,3.6,72,0.00,,,0.00,WUHU216HW,2013-02-26 10:15:00,
2013-02-26 05:20:00,28.3,20.4,30.08,North,0,2.7,3.4,72,0.00,,,0.00,WUHU216HW,2013-02-26 10:20:00,
2013-02-26 05:25:00,28.4,20.6,30.08,NE,45,2.5,3.4,72,0.00,,,0.00,WUHU216HW,2013-02-26 10:25:00,
2013-02-26 05:30:00,28.3,20.4,30.07,NNW,338,2.7,3.4,72,0.00,,,0.00,WUHU216HW,2013-02-26 10:30:00,
2013-02-26 05:35:00,28.4,20.6,30.07,NE,45,3.1,3.8,72,0.00,,,0.00,WUHU216HW,2013-02-26 10:35:00,
2013-02-26 05:40:00,28.4,20.6,30.07,NNE,23,2.0,3.8,72,0.00,,,0.00,WUHU216HW,2013-02-26 10:40:00,
2013-02-26 05:45:00,28.4,20.6,30.06,ENE,68,2.5,4.0,72,0.00,,,0.00,WUHU216HW,2013-02-26 10:45:00,
2013-02-26 05:50:00,28.4,20.6,30.06,NNE,23,1.1,4.0,72,0.00,,,0.00,WUHU216HW,2013-02-26 10:50:00,
2013-02-26 05:55:00,28.4,20.6,30.06,NNE,23,3.1,4.0,72,0.00,,,0.00,WUHU216HW,2013-02-26 10:55:00,
2013-02-26 06:00:00,28.4,20.6,30.05,ENE,68,3.8,3.8,72,0.00,,,0.00,WUHU216HW,2013-02-26 11:00:00,
2013-02-26 06:05:00,28.4,20.6,30.04,ENE,68,3.8,3.8,72,0.00,,,0.00,WUHU216HW,2013-02-26 11:05:00,
2013-02-26 06:10:00,28.4,20.6,30.05,NE,45,1.8,3.8,72,0.00,,,0.00,WUHU216HW,2013-02-26 11:10:00,
2013-02-26 06:15:00,28.4,20.6,30.05,NE,45,2.0,4.0,72,0.00,,,0.00,WUHU216HW,2013-02-26 11:15:00,
2013-02-26 06:20:00,28.6,20.8,30.06,NE,45,2.2,4.0,72,0.00,,,0.00,WUHU216HW,2013-02-26 11:20:00,
2013-02-26 06:25:00,28.6,20.4,30.06,NE,45,1.1,3.4,71,0.00,,,0.00,WUHU216HW,2013-02-26 11:25:00,
2013-02-26 06:30:00,28.8,20.6,30.06,NE,45,2.0,4.5,71,0.00,,,0.00,WUHU216HW,2013-02-26 11:30:00,
2013-02-26 06:35:00,28.8,20.6,30.06,NNE,23,2.2,4.5,71,0.00,,,0.00,WUHU216HW,2013-02-26 11:35:00,
2013-02-26 06:40:00,28.8,20.6,30.06,NNW,338,1.1,3.4,71,0.00,,,0.00,WUHU216HW,2013-02-26 11:40:00,
2013-02-26 06:45:00,28.8,20.6,30.05,SE,135,0.2,2.7,71,0.00,,,0.00,WUHU216HW,2013-02-26 11:45:00,
2013-02-26 06:50:00,28.8,20.6,30.05,ENE,68,2.5,2.7,71,0.00,,,0.00,WUHU216HW,2013-02-26 11:50:00,
2013-02-26 06:55:00,28.8,20.6,30.06,ENE,68,1.1,4.0,71,0.00,,,0.00,WUHU216HW,2013-02-26 11:55:00,
2013-02-26 07:00:00,28.8,20.6,30.06,NE,45,2.5,4.0,71,0.00,,,0.00,WUHU216HW,2013-02-26 12:00:00,
2013-02-26 07:05:00,28.8,20.6,30.06,ENE,68,2.2,2.9,71,0.00,,,0.00,WUHU216HW,2013-02-26 12:05:00,
2013-02-26 07:10:00,28.8,20.6,30.07,ENE,68,0.0,2.9,71,0.00,,,0.00,WUHU216HW,2013-02-26 12:10:00,
2013-02-26 07:15:00,28.8,20.6,30.06,East,90,2.9,4.9,71,0.00,,,0.00,WUHU216HW,2013-02-26 12:15:00,
2013-02-26 07:20:00,28.8,20.6,30.06,NE,45,0.9,4.9,71,0.00,,,0.00,WUHU216HW,2013-02-26 12:20:00,
2013-02-26 07:25:00,28.8,20.6,30.06,NNE,23,2.9,3.4,71,0.00,,,0.00,WUHU216HW,2013-02-26 12:25:00,
2013-02-26 07:30:00,28.8,20.9,30.06,NE,45,2.7,3.6,72,0.00,,,0.00,WUHU216HW,2013-02-26 12:30:00,
2013-02-26 07:35:00,28.8,20.9,30.06,NNE,23,0.4,3.6,72,0.00,,,0.00,WUHU216HW,2013-02-26 12:35:00,
2013-02-26 07:40:00,28.8,20.9,30.06,ESE,113,2.7,2.7,72,0.00,,,0.00,WUHU216HW,2013-02-26 12:40:00,
2013-02-26 07:45:00,28.8,20.9,30.05,NNE,23,3.8,5.8,72,0.00,,,0.00,WUHU216HW,2013-02-26 12:45:00,
2013-02-26 07:50:00,28.8,20.9,30.06,East,90,2.5,5.8,72,0.00,,,0.00,WUHU216HW,2013-02-26 12:50:00,
2013-02-26 07:55:00,28.8,20.9,30.05,North,0,2.5,4.9,72,0.00,,,0.00,WUHU216HW,2013-02-26 12:55:00,
2013-02-26 08:00:00,28.8,20.9,30.05,ENE,68,3.8,7.4,72,0.00,,,0.00,WUHU216HW,2013-02-26 13:00:00,
2013-02-26 08:05:00,28.8,20.9,30.05,NE,45,3.4,7.4,72,0.00,,,0.00,WUHU216HW,2013-02-26 13:05:00,
2013-02-26 08:10:00,29.0,20.8,30.05,ENE,68,1.3,6.0,71,0.00,,,0.00,WUHU216HW,2013-02-26 13:10:00,
2013-02-26 08:15:00,29.0,21.1,30.05,ENE,68,2.5,5.4,72,0.00,,,0.00,WUHU216HW,2013-02-26 13:15:00,
2013-02-26 08:20:00,29.2,21.0,30.05,South,180,2.0,6.3,71,0.00,,,0.00,WUHU216HW,2013-02-26 13:20:00,
2013-02-26 08:25:00,29.2,21.0,30.05,NNE,23,4.7,6.3,71,0.00,,,0.00,WUHU216HW,2013-02-26 13:25:00,
2013-02-26 08:30:00,29.2,21.0,30.05,East,90,1.1,5.1,71,0.00,,,0.00,WUHU216HW,2013-02-26 13:30:00,
2013-02-26 08:35:00,29.2,21.0,30.05,ENE,68,6.3,6.3,71,0.00,,,0.00,WUHU216HW,2013-02-26 13:35:00,
2013-02-26 08:40:00,29.3,21.1,30.05,ENE,68,5.8,6.3,71,0.00,,,0.00,WUHU216HW,2013-02-26 13:40:00,
2013-02-26 08:45:00,29.5,21.2,30.05,NNW,338,3.8,5.8,71,0.00,,,0.00,WUHU216HW,2013-02-26 13:45:00,
2013-02-26 08:50:00,29.7,21.4,30.04,NE,45,1.8,4.0,71,0.00,,,0.00,WUHU216HW,2013-02-26 13:50:00,
2013-02-26 08:55:00,29.5,21.2,30.04,NE,45,3.4,4.0,71,0.00,,,0.00,WUHU216HW,2013-02-26 13:55:00,
2013-02-26 09:00:00,29.7,21.4,30.04,SE,135,2.5,3.4,71,0.00,,,0.00,WUHU216HW,2013-02-26 14:00:00,
2013-02-26 09:05:00,29.9,21.6,30.04,NW,315,1.3,2.9,71,0.00,,,0.00,WUHU216HW,2013-02-26 14:05:00,
2013-02-26 09:10:00,29.9,21.6,30.05,ENE,68,1.1,2.0,71,0.00,,,0.00,WUHU216HW,2013-02-26 14:10:00,
2013-02-26 09:15:00,29.9,21.6,30.04,NE,45,2.7,2.7,71,0.00,,,0.00,WUHU216HW,2013-02-26 14:15:00,
2013-02-26 09:20:00,29.9,21.6,30.04,ENE,68,1.8,5.4,71,0.00,,,0.00,WUHU216HW,2013-02-26 14:20:00,
2013-02-26 09:25:00,30.1,21.8,30.03,NE,45,5.6,5.6,71,0.00,,,0.00,WUHU216HW,2013-02-26 14:25:00,
2013-02-26 09:30:00,30.2,21.6,30.02,NE,45,4.0,5.6,70,0.00,,,0.00,WUHU216HW,2013-02-26 14:30:00,
2013-02-26 09:35:00,30.1,21.4,30.02,ENE,68,1.3,4.9,70,0.00,,,0.00,WUHU216HW,2013-02-26 14:35:00,
2013-02-26 09:40:00,30.2,21.6,30.01,ENE,68,4.7,6.5,70,0.00,,,0.00,WUHU216HW,2013-02-26 14:40:00,
2013-02-26 09:45:00,30.2,21.6,30.01,ESE,113,4.0,6.5,70,0.00,,,0.00,WUHU216HW,2013-02-26 14:45:00,
2013-02-26 09:50:00,30.4,21.8,30.01,ENE,68,3.4,6.3,70,0.00,,,0.00,WUHU216HW,2013-02-26 14:50:00,
2013-02-26 09:55:00,30.4,21.8,30.00,ENE,68,3.6,5.1,70,0.00,,,0.00,WUHU216HW,2013-02-26 14:55:00,
2013-02-26 10:00:00,30.6,22.0,29.99,NNE,23,2.5,5.4,70,0.00,,,0.00,WUHU216HW,2013-02-26 15:00:00,
2013-02-26 10:05:00,30.6,22.0,29.98,East,90,5.6,5.6,70,0.00,,,0.00,WUHU216HW,2013-02-26 15:05:00,
2013-02-26 10:10:00,30.8,22.1,29.97,ENE,68,2.7,5.6,70,0.00,,,0.00,WUHU216HW,2013-02-26 15:10:00,
2013-02-26 10:15:00,31.0,22.3,29.96,ENE,68,3.8,3.8,70,0.00,,,0.00,WUHU216HW,2013-02-26 15:15:00,
2013-02-26 10:20:00,31.0,22.3,29.95,NE,45,6.3,6.3,70,0.00,,,0.00,WUHU216HW,2013-02-26 15:20:00,
2013-02-26 10:25:00,31.1,22.5,29.96,NNE,23,2.5,6.3,70,0.00,,,0.00,WUHU216HW,2013-02-26 15:25:00,
2013-02-26 10:30:00,31.3,22.7,29.97,NE,45,3.1,5.8,70,0.00,,,0.00,WUHU216HW,2013-02-26 15:30:00,
2013-02-26 10:35:00,31.3,22.3,29.96,ENE,68,2.2,4.9,69,0.00,,,0.00,WUHU216HW,2013-02-26 15:35:00,
2013-02-26 10:40:00,31.7,22.7,29.96,SSE,158,4.0,4.9,69,0.00,,,0.00,WUHU216HW,2013-02-26 15:40:00,
2013-02-26 10:45:00,31.7,22.7,29.95,NE,45,2.5,4.3,69,0.00,,,0.00,WUHU216HW,2013-02-26 15:45:00,
2013-02-26 10:50:00,31.9,22.9,29.95,NE,45,2.2,4.0,69,0.00,,,0.00,WUHU216HW,2013-02-26 15:50:00,
2013-02-26 10:55:00,32.0,23.4,29.94,ESE,113,4.0,5.4,70,0.00,,,0.00,WUHU216HW,2013-02-26 15:55:00,
2013-02-26 11:00:00,32.8,23.7,29.94,ENE,68,5.8,6.9,69,0.00,,,0.00,WUHU216HW,2013-02-26 16:00:00,
2013-02-26 11:05:00,33.5,23.9,29.94,SE,135,6.3,6.9,68,0.00,,,0.00,WUHU216HW,2013-02-26 16:05:00,
2013-02-26 11:10:00,33.7,23.8,29.94,SSE,158,4.0,8.5,67,0.00,,,0.00,WUHU216HW,2013-02-26 16:10:00,
2013-02-26 11:15:00,33.7,23.8,29.94,NE,45,4.0,8.5,67,0.00,,,0.00,WUHU216HW,2013-02-26 16:15:00,
2013-02-26 11:20:00,33.5,23.6,29.94,NE,45,3.4,4.0,67,0.00,,,0.00,WUHU216HW,2013-02-26 16:20:00,
2013-02-26 11:25:00,33.5,23.2,29.93,SE,135,2.0,6.0,66,0.00,,,0.00,WUHU216HW,2013-02-26 16:25:00,
2013-02-26 11:30:00,33.5,23.6,29.93,East,90,5.8,6.9,67,0.00,,,0.00,WUHU216HW,2013-02-26 16:30:00,
2013-02-26 11:35:00,33.7,23.8,29.93,NNE,23,6.3,6.9,67,0.00,,,0.00,WUHU216HW,2013-02-26 16:35:00,
2013-02-26 11:40:00,34.2,23.9,29.93,SE,135,2.7,8.7,66,0.00,,,0.00,WUHU216HW,2013-02-26 16:40:00,
2013-02-26 11:45:00,34.6,23.9,29.93,NE,45,5.4,8.7,65,0.00,,,0.00,WUHU216HW,2013-02-26 16:45:00,
2013-02-26 11:50:00,34.7,24.1,29.93,ESE,113,6.0,7.8,65,0.00,,,0.00,WUHU216HW,2013-02-26 16:50:00,
2013-02-26 11:55:00,34.6,23.9,29.92,NE,45,3.8,7.8,65,0.00,,,0.00,WUHU216HW,2013-02-26 16:55:00,
2013-02-26 12:00:00,34.7,24.1,29.92,SE,135,3.4,8.3,65,0.00,,,0.00,WUHU216HW,2013-02-26 17:00:00,
2013-02-26 12:05:00,35.1,24.5,29.92,ESE,113,3.8,8.3,65,0.00,,,0.00,WUHU216HW,2013-02-26 17:05:00,
2013-02-26 12:10:00,35.3,24.3,29.92,NE,45,3.8,6.3,64,0.00,,,0.00,WUHU216HW,2013-02-26 17:10:00,
2013-02-26 12:15:00,35.5,24.8,29.91,NNW,338,4.9,6.7,65,0.00,,,0.00,WUHU216HW,2013-02-26 17:15:00,
2013-02-26 12:20:00,35.6,24.7,29.91,East,90,4.3,6.9,64,0.00,,,0.00,WUHU216HW,2013-02-26 17:20:00,
2013-02-26 12:25:00,35.8,24.9,29.90,NNE,23,4.3,6.9,64,0.00,,,0.00,WUHU216HW,2013-02-26 17:25:00,
2013-02-26 12:30:00,36.4,24.9,29.90,East,90,5.4,5.8,63,0.00,,,0.00,WUHU216HW,2013-02-26 17:30:00,
2013-02-26 12:35:00,36.5,24.8,29.89,SE,135,2.9,6.5,62,0.00,,,0.00,WUHU216HW,2013-02-26 17:35:00,
2013-02-26 12:40:00,36.4,24.6,29.89,ENE,68,4.0,6.5,62,0.00,,,0.00,WUHU216HW,2013-02-26 17:40:00,
2013-02-26 12:45:00,36.4,24.6,29.89,East,90,1.1,6.9,62,0.00,,,0.00,WUHU216HW,2013-02-26 17:45:00,
2013-02-26 12:50:00,36.2,24.9,29.88,ENE,68,1.3,6.9,63,0.00,,,0.00,WUHU216HW,2013-02-26 17:50:00,
2013-02-26 12:55:00,36.4,24.6,29.88,South,180,3.8,6.5,62,0.00,,,0.00,WUHU216HW,2013-02-26 17:55:00,
2013-02-26 13:00:00,36.0,25.0,29.87,NNE,23,2.5,7.4,64,0.00,,,0.00,WUHU216HW,2013-02-26 18:00:00,
2013-02-26 13:05:00,35.8,24.9,29.87,NE,45,5.1,7.6,64,0.00,,,0.00,WUHU216HW,2013-02-26 18:05:00,
2013-02-26 13:10:00,35.6,24.7,29.87,East,90,6.9,7.6,64,0.00,,,0.00,WUHU216HW,2013-02-26 18:10:00,
2013-02-26 13:15:00,35.5,25.2,29.86,ESE,113,2.7,6.9,66,0.00,,,0.00,WUHU216HW,2013-02-26 18:15:00,
2013-02-26 13:20:00,35.3,25.7,29.86,NW,315,2.9,3.6,68,0.00,,,0.00,WUHU216HW,2013-02-26 18:20:00,
2013-02-26 13:25:00,34.9,25.4,29.86,NE,45,5.6,5.6,68,0.01,,,0.00,WUHU216HW,2013-02-26 18:25:00,
2013-02-26 13:30:00,34.9,26.1,29.85,ESE,113,1.1,5.6,70,0.01,,,0.01,WUHU216HW,2013-02-26 18:30:00,
2013-02-26 13:35:00,34.7,26.3,29.84,ENE,68,5.8,5.8,71,0.01,,,0.01,WUHU216HW,2013-02-26 18:35:00,
2013-02-26 13:40:00,34.6,26.4,29.84,ENE,68,2.7,5.8,72,0.01,,,0.01,WUHU216HW,2013-02-26 18:40:00,
2013-02-26 13:45:00,34.4,26.2,29.83,ESE,113,1.8,5.4,72,0.01,,,0.01,WUHU216HW,2013-02-26 18:45:00,
2013-02-26 13:50:00,34.4,26.6,29.83,East,90,2.5,3.8,73,0.02,,,0.02,WUHU216HW,2013-02-26 18:50:00,
2013-02-26 13:55:00,34.4,26.6,29.83,NE,45,4.7,4.7,73,0.02,,,0.02,WUHU216HW,2013-02-26 18:55:00,
2013-02-26 14:00:00,34.2,26.4,29.82,ENE,68,2.0,4.7,73,0.02,,,0.02,WUHU216HW,2013-02-26 19:00:00,
2013-02-26 14:05:00,34.2,26.4,29.81,NE,45,2.5,4.7,73,0.02,,,0.02,WUHU216HW,2013-02-26 19:05:00,
2013-02-26 14:10:00,34.6,27.0,29.81,North,0,1.6,4.0,74,0.02,,,0.02,WUHU216HW,2013-02-26 19:10:00,
2013-02-26 14:15:00,34.7,27.5,29.80,NNE,23,5.6,6.3,75,0.03,,,0.03,WUHU216HW,2013-02-26 19:15:00,
2013-02-26 14:20:00,34.7,27.2,29.80,ENE,68,2.9,6.3,74,0.03,,,0.03,WUHU216HW,2013-02-26 19:20:00,
2013-02-26 14:25:00,34.7,27.5,29.79,SE,135,2.5,4.7,75,0.02,,,0.03,WUHU216HW,2013-02-26 19:25:00,
2013-02-26 14:30:00,34.6,27.4,29.78,ENE,68,3.8,4.7,75,0.02,,,0.03,WUHU216HW,2013-02-26 19:30:00,
2013-02-26 14:35:00,34.7,27.2,29.78,ENE,68,4.9,5.8,74,0.02,,,0.03,WUHU216HW,2013-02-26 19:35:00,
2013-02-26 14:40:00,34.7,27.5,29.78,SW,225,3.8,5.8,75,0.02,,,0.03,WUHU216HW,2013-02-26 19:40:00,
2013-02-26 14:45:00,34.7,27.5,29.78,NE,45,3.6,4.9,75,0.01,,,0.03,WUHU216HW,2013-02-26 19:45:00,
2013-02-26 14:50:00,34.7,27.5,29.78,East,90,1.8,6.9,75,0.01,,,0.03,WUHU216HW,2013-02-26 19:50:00,
2013-02-26 14:55:00,34.6,27.4,29.77,NE,45,4.3,6.9,75,0.01,,,0.03,WUHU216HW,2013-02-26 19:55:00,
2013-02-26 15:00:00,34.4,27.6,29.77,NE,45,3.4,5.4,76,0.01,,,0.03,WUHU216HW,2013-02-26 20:00:00,
2013-02-26 15:05:00,34.4,27.8,29.77,SSE,158,3.8,5.4,77,0.02,,,0.04,WUHU216HW,2013-02-26 20:05:00,
2013-02-26 15:10:00,34.4,27.8,29.76,ESE,113,4.0,9.2,77,0.01,,,0.04,WUHU216HW,2013-02-26 20:10:00,
2013-02-26 15:15:00,34.2,27.6,29.76,ESE,113,3.4,9.2,77,0.01,,,0.04,WUHU216HW,2013-02-26 20:15:00,
2013-02-26 15:20:00,34.6,28.0,29.76,NNE,23,1.8,6.0,77,0.01,,,0.04,WUHU216HW,2013-02-26 20:20:00,
2013-02-26 15:25:00,34.4,27.8,29.76,ENE,68,4.0,6.0,77,0.01,,,0.04,WUHU216HW,2013-02-26 20:25:00,
2013-02-26 15:30:00,34.6,28.0,29.76,East,90,4.3,4.5,77,0.01,,,0.04,WUHU216HW,2013-02-26 20:30:00,
2013-02-26 15:35:00,34.6,28.4,29.76,ESE,113,4.0,5.4,78,0.01,,,0.04,WUHU216HW,2013-02-26 20:35:00,
2013-02-26 15:40:00,34.6,28.4,29.76,SSE,158,4.7,6.3,78,0.01,,,0.04,WUHU216HW,2013-02-26 20:40:00,
2013-02-26 15:45:00,34.4,28.2,29.75,ENE,68,3.6,8.3,78,0.01,,,0.04,WUHU216HW,2013-02-26 20:45:00,
2013-02-26 15:50:00,34.2,28.0,29.75,SSE,158,5.4,8.3,78,0.02,,,0.05,WUHU216HW,2013-02-26 20:50:00,
2013-02-26 15:55:00,34.2,28.3,29.75,SW,225,3.4,6.3,79,0.02,,,0.05,WUHU216HW,2013-02-26 20:55:00,
2013-02-26 16:00:00,34.2,28.3,29.76,NNE,23,3.4,6.0,79,0.02,,,0.05,WUHU216HW,2013-02-26 21:00:00,
2013-02-26 16:05:00,34.2,28.6,29.76,ENE,68,2.0,4.5,80,0.02,,,0.05,WUHU216HW,2013-02-26 21:05:00,
2013-02-26 16:10:00,34.0,28.4,29.76,East,90,2.5,5.1,80,0.02,,,0.06,WUHU216HW,2013-02-26 21:10:00,
2013-02-26 16:15:00,34.0,28.7,29.76,ENE,68,1.8,5.1,81,0.03,,,0.07,WUHU216HW,2013-02-26 21:15:00,
2013-02-26 16:20:00,34.0,28.7,29.76,North,0,1.3,5.1,81,0.04,,,0.07,WUHU216HW,2013-02-26 21:20:00,
2013-02-26 16:25:00,33.8,28.5,29.76,ENE,68,2.0,6.3,81,0.04,,,0.08,WUHU216HW,2013-02-26 21:25:00,
2013-02-26 16:30:00,34.0,29.4,29.76,East,90,4.3,6.3,83,0.05,,,0.09,WUHU216HW,2013-02-26 21:30:00,
2013-02-26 16:35:00,33.8,28.5,29.76,NNE,23,3.4,4.3,81,0.06,,,0.10,WUHU216HW,2013-02-26 21:35:00,
2013-02-26 16:40:00,33.8,28.8,29.76,ENE,68,1.1,4.0,82,0.07,,,0.11,WUHU216HW,2013-02-26 21:40:00,
2013-02-26 16:45:00,33.7,28.7,29.76,ENE,68,1.3,4.0,82,0.07,,,0.11,WUHU216HW,2013-02-26 21:45:00,
2013-02-26 16:50:00,33.7,29.0,29.76,SE,135,2.5,4.7,83,0.06,,,0.11,WUHU216HW,2013-02-26 21:50:00,
2013-02-26 16:55:00,33.5,28.8,29.76,NE,45,6.3,6.3,83,0.06,,,0.11,WUHU216HW,2013-02-26 21:55:00,
2013-02-26 17:00:00,33.5,29.1,29.75,ENE,68,2.0,6.3,84,0.06,,,0.11,WUHU216HW,2013-02-26 22:00:00,
2013-02-26 17:05:00,33.3,29.3,29.75,ESE,113,4.3,5.6,85,0.05,,,0.11,WUHU216HW,2013-02-26 22:05:00,
2013-02-26 17:10:00,33.1,29.3,29.74,ESE,113,4.7,8.3,86,0.04,,,0.11,WUHU216HW,2013-02-26 22:10:00,
2013-02-26 17:15:00,33.1,29.1,29.75,ENE,68,3.1,8.3,85,0.04,,,0.11,WUHU216HW,2013-02-26 22:15:00,
2013-02-26 17:20:00,33.1,29.3,29.74,ESE,113,3.4,5.1,86,0.03,,,0.11,WUHU216HW,2013-02-26 22:20:00,
2013-02-26 17:25:00,33.1,29.3,29.74,NE,45,4.0,6.3,86,0.02,,,0.11,WUHU216HW,2013-02-26 22:25:00,
2013-02-26 17:30:00,33.3,29.5,29.74,NNE,23,2.9,6.3,86,0.02,,,0.11,WUHU216HW,2013-02-26 22:30:00,
2013-02-26 17:35:00,33.3,29.5,29.73,NE,45,2.5,6.3,86,0.01,,,0.11,WUHU216HW,2013-02-26 22:35:00,
2013-02-26 17:40:00,33.3,29.5,29.73,ENE,68,3.8,6.3,86,0.00,,,0.11,WUHU216HW,2013-02-26 22:40:00,
2013-02-26 17:45:00,33.3,29.5,29.73,ENE,68,2.7,8.3,86,0.00,,,0.11,WUHU216HW,2013-02-26 22:45:00,
2013-02-26 17:50:00,33.1,29.3,29.72,NNW,338,4.5,8.3,86,0.00,,,0.11,WUHU216HW,2013-02-26 22:50:00,
2013-02-26 17:55:00,33.1,29.6,29.72,ESE,113,4.0,6.3,87,0.00,,,0.11,WUHU216HW,2013-02-26 22:55:00,
2013-02-26 18:00:00,33.1,29.6,29.72,ENE,68,3.4,8.3,87,0.00,,,0.11,WUHU216HW,2013-02-26 23:00:00,
2013-02-26 18:05:00,33.1,29.6,29.72,NE,45,2.5,8.3,87,0.00,,,0.11,WUHU216HW,2013-02-26 23:05:00,
2013-02-26 18:10:00,33.1,29.9,29.72,ENE,68,5.4,6.9,88,0.00,,,0.11,WUHU216HW,2013-02-26 23:10:00,
2013-02-26 18:15:00,33.1,29.9,29.72,NNE,23,4.7,6.9,88,0.00,,,0.11,WUHU216HW,2013-02-26 23:15:00,
2013-02-26 18:20:00,33.1,29.9,29.72,North,0,1.1,5.4,88,0.00,,,0.11,WUHU216HW,2013-02-26 23:20:00,
2013-02-26 18:25:00,33.1,29.9,29.71,ENE,68,2.5,5.4,88,0.00,,,0.11,WUHU216HW,2013-02-26 23:25:00,
2013-02-26 18:30:00,33.1,30.3,29.71,ENE,68,3.1,5.6,89,0.00,,,0.11,WUHU216HW,2013-02-26 23:30:00,
2013-02-26 18:35:00,33.1,30.3,29.72,South,180,2.5,5.6,89,0.00,,,0.11,WUHU216HW,2013-02-26 23:35:00,
2013-02-26 18:40:00,33.1,29.9,29.71,NNE,23,2.9,4.5,88,0.00,,,0.11,WUHU216HW,2013-02-26 23:40:00,
2013-02-26 18:45:00,33.1,29.9,29.71,ENE,68,4.9,4.9,88,0.00,,,0.11,WUHU216HW,2013-02-26 23:45:00,
2013-02-26 18:50:00,33.1,30.3,29.71,ESE,113,2.5,4.9,89,0.00,,,0.11,WUHU216HW,2013-02-26 23:50:00,
2013-02-26 18:55:00,33.1,30.3,29.71,NNW,338,1.3,4.9,89,0.00,,,0.11,WUHU216HW,2013-02-26 23:55:00,
2013-02-26 19:00:00,32.9,30.1,29.71,ENE,68,1.1,3.4,89,0.00,,,0.11,WUHU216HW,2013-02-27 00:00:00,
2013-02-26 19:05:00,33.1,30.3,29.70,NNE,23,1.8,4.3,89,0.00,,,0.11,WUHU216HW,2013-02-27 00:05:00,
2013-02-26 19:10:00,33.1,30.3,29.70,East,90,3.4,4.3,89,0.00,,,0.11,WUHU216HW,2013-02-27 00:10:00,
2013-02-26 19:15:00,33.1,30.3,29.70,South,180,2.5,3.6,89,0.00,,,0.11,WUHU216HW,2013-02-27 00:15:00,
2013-02-26 19:20:00,33.1,30.3,29.70,South,180,1.3,3.6,89,0.00,,,0.11,WUHU216HW,2013-02-27 00:20:00,
2013-02-26 19:25:00,33.1,30.3,29.70,South,180,1.8,6.5,89,0.00,,,0.11,WUHU216HW,2013-02-27 00:25:00,
2013-02-26 19:30:00,33.1,30.3,29.70,South,180,1.6,6.5,89,0.00,,,0.11,WUHU216HW,2013-02-27 00:30:00,
2013-02-26 19:35:00,33.1,30.3,29.70,South,180,6.0,6.0,89,0.00,,,0.11,WUHU216HW,2013-02-27 00:35:00,
2013-02-26 19:40:00,33.1,30.3,29.70,South,180,3.4,6.0,89,0.00,,,0.11,WUHU216HW,2013-02-27 00:40:00,
2013-02-26 19:45:00,33.1,30.3,29.70,South,180,1.8,6.0,89,0.00,,,0.11,WUHU216HW,2013-02-27 00:45:00,
2013-02-26 19:50:00,33.1,30.3,29.70,South,180,1.6,5.8,89,0.00,,,0.11,WUHU216HW,2013-02-27 00:50:00,
2013-02-26 19:55:00,33.1,30.3,29.69,South,180,3.8,5.8,89,0.00,,,0.11,WUHU216HW,2013-02-27 00:55:00,
2013-02-26 20:00:00,33.1,30.3,29.69,South,180,1.8,3.8,89,0.00,,,0.11,WUHU216HW,2013-02-27 01:00:00,
2013-02-26 20:05:00,33.1,30.3,29.69,South,180,3.4,5.4,89,0.00,,,0.11,WUHU216HW,2013-02-27 01:05:00,
2013-02-26 20:10:00,33.3,30.3,29.69,South,180,4.9,5.4,89,0.00,,,0.11,WUHU216HW,2013-02-27 01:10:00,
2013-02-26 20:15:00,33.1,30.3,29.69,South,180,3.8,4.9,89,0.00,,,0.11,WUHU216HW,2013-02-27 01:15:00,
2013-02-26 20:20:00,33.1,30.3,29.69,South,180,2.5,4.5,89,0.00,,,0.11,WUHU216HW,2013-02-27 01:20:00,
2013-02-26 20:25:00,33.3,30.3,29.69,South,180,3.1,4.5,89,0.00,,,0.11,WUHU216HW,2013-02-27 01:25:00,
2013-02-26 20:30:00,33.1,30.3,29.68,South,180,2.0,3.1,89,0.00,,,0.11,WUHU216HW,2013-02-27 01:30:00,
2013-02-26 20:35:00,33.1,30.3,29.68,South,180,3.4,4.7,89,0.00,,,0.11,WUHU216HW,2013-02-27 01:35:00,
2013-02-26 20:40:00,33.1,30.3,29.68,South,180,2.5,4.7,89,0.00,,,0.11,WUHU216HW,2013-02-27 01:40:00,
2013-02-26 20:45:00,33.1,30.3,29.68,South,180,2.5,4.0,89,0.00,,,0.11,WUHU216HW,2013-02-27 01:45:00,
2013-02-26 20:50:00,33.1,30.3,29.67,South,180,1.8,3.1,89,0.00,,,0.11,WUHU216HW,2013-02-27 01:50:00,
2013-02-26 20:55:00,32.9,30.1,29.67,South,180,1.1,3.1,89,0.00,,,0.11,WUHU216HW,2013-02-27 01:55:00,
2013-02-26 21:00:00,32.9,30.1,29.67,South,180,0.4,2.0,89,0.00,,,0.11,WUHU216HW,2013-02-27 02:00:00,
2013-02-26 21:05:00,32.9,30.1,29.67,South,180,1.8,1.8,89,0.00,,,0.11,WUHU216HW,2013-02-27 02:05:00,
2013-02-26 21:11:00,32.9,30.1,29.67,South,180,0.7,2.2,89,0.00,,,0.11,WUHU216HW,2013-02-27 02:11:00,
2013-02-26 21:16:00,32.9,30.1,29.67,South,180,0.9,2.5,89,0.00,,,0.11,WUHU216HW,2013-02-27 02:16:00,
2013-02-26 21:21:00,32.9,30.1,29.66,South,180,1.3,2.9,89,0.00,,,0.11,WUHU216HW,2013-02-27 02:21:00,
2013-02-26 21:26:00,32.9,30.1,29.67,South,180,0.7,2.9,89,0.00,,,0.11,WUHU216HW,2013-02-27 02:26:00,
2013-02-26 21:31:00,33.1,30.3,29.66,South,180,0.4,2.7,89,0.00,,,0.11,WUHU216HW,2013-02-27 02:31:00,
2013-02-26 21:36:00,32.9,30.1,29.66,South,180,2.5,3.4,89,0.00,,,0.11,WUHU216HW,2013-02-27 02:36:00,
2013-02-26 21:41:00,32.9,30.1,29.66,South,180,2.5,3.4,89,0.00,,,0.11,WUHU216HW,2013-02-27 02:41:00,
2013-02-26 21:46:00,32.9,30.1,29.65,South,180,2.0,2.5,89,0.00,,,0.11,WUHU216HW,2013-02-27 02:46:00,
2013-02-26 21:51:00,32.9,30.1,29.65,South,180,0.0,2.5,89,0.00,,,0.11,WUHU216HW,2013-02-27 02:51:00,
2013-02-26 21:56:00,32.9,30.1,29.65,South,180,0.0,2.5,89,0.00,,,0.11,WUHU216HW,2013-02-27 02:56:00,
2013-02-26 22:01:00,32.9,30.1,29.64,South,180,0.0,2.5,89,0.00,,,0.11,WUHU216HW,2013-02-27 03:01:00,
2013-02-26 22:06:00,32.9,30.1,29.64,South,180,0.0,1.1,89,0.00,,,0.11,WUHU216HW,2013-02-27 03:06:00,
2013-02-26 22:11:00,32.9,30.1,29.64,South,180,0.9,5.4,89,0.00,,,0.11,WUHU216HW,2013-02-27 03:11:00,
2013-02-26 22:16:00,33.1,30.3,29.64,South,180,0.0,5.4,89,0.00,,,0.11,WUHU216HW,2013-02-27 03:16:00,
2013-02-26 22:21:00,32.9,30.1,29.64,South,180,1.8,3.6,89,0.00,,,0.11,WUHU216HW,2013-02-27 03:21:00,
2013-02-26 22:26:00,32.9,30.1,29.64,South,180,1.3,2.5,89,0.00,,,0.11,WUHU216HW,2013-02-27 03:26:00,
2013-02-26 22:31:00,33.1,30.3,29.63,South,180,1.1,4.0,89,0.00,,,0.11,WUHU216HW,2013-02-27 03:31:00,
2013-02-26 22:36:00,33.1,30.3,29.63,South,180,1.8,4.0,89,0.00,,,0.11,WUHU216HW,2013-02-27 03:36:00,
2013-02-26 22:41:00,33.1,30.3,29.63,South,180,0.0,2.5,89,0.00,,,0.11,WUHU216HW,2013-02-27 03:41:00,
2013-02-26 22:46:00,33.1,30.3,29.63,South,180,0.0,1.6,89,0.00,,,0.11,WUHU216HW,2013-02-27 03:46:00,
2013-02-26 22:51:00,33.1,30.3,29.63,South,180,0.0,0.0,89,0.00,,,0.11,WUHU216HW,2013-02-27 03:51:00,
2013-02-26 22:56:00,33.1,30.3,29.63,South,180,0.0,0.0,89,0.00,,,0.11,WUHU216HW,2013-02-27 03:56:00,
2013-02-26 23:01:00,33.1,30.3,29.62,South,180,0.0,0.0,89,0.00,,,0.11,WUHU216HW,2013-02-27 04:01:00,
2013-02-26 23:06:00,33.1,30.3,29.62,South,180,0.0,0.0,89,0.00,,,0.11,WUHU216HW,2013-02-27 04:06:00,
2013-02-26 23:11:00,33.1,30.3,29.62,South,180,0.0,1.8,89,0.00,,,0.11,WUHU216HW,2013-02-27 04:11:00,
2013-02-26 23:16:00,33.1,30.3,29.62,South,180,0.7,1.8,89,0.00,,,0.11,WUHU216HW,2013-02-27 04:16:00,
2013-02-26 23:21:00,33.1,30.3,29.62,South,180,2.5,2.9,89,0.00,,,0.11,WUHU216HW,2013-02-27 04:21:00,
2013-02-26 23:26:00,33.1,30.3,29.61,South,180,1.8,2.9,89,0.00,,,0.11,WUHU216HW,2013-02-27 04:26:00,
2013-02-26 23:31:00,33.1,30.3,29.62,South,180,2.2,2.2,89,0.00,,,0.11,WUHU216HW,2013-02-27 04:31:00,
2013-02-26 23:36:00,33.1,30.3,29.61,South,180,1.6,2.2,89,0.00,,,0.11,WUHU216HW,2013-02-27 04:36:00,
2013-02-26 23:41:00,33.1,30.3,29.61,South,180,1.6,1.8,89,0.00,,,0.11,WUHU216HW,2013-02-27 04:41:00,
2013-02-26 23:46:00,33.1,30.3,29.61,South,180,0.7,2.5,89,0.00,,,0.11,WUHU216HW,2013-02-27 04:46:00,
2013-02-26 23:51:00,33.1,30.3,29.61,South,180,1.3,2.5,89,0.00,,,0.11,WUHU216HW,2013-02-27 04:51:00,
2013-02-26 23:56:00,33.1,30.3,29.60,South,180,0.4,6.3,89,0.00,,,0.11,WUHU216HW,2013-02-27 04:56:00,